User: anonymous   Login
Location: Unspecified
(0.0000°N, 0.0000°E)
Time: 01:01:57
(UTC+00:00)
Language:

STARLINK-32958 - Orbit

View from above orbital plane
View from above orbital plane
View from above satellite
View from above satellite

Ground track
Ground track

The orbit is defined by the following mean orbital elements,

1 63563U          26145.42797370 +.00000000 +00000-0 +42922-3 0 00005
2 63563  43.0000 197.2443 0001772 276.3124  83.7526 15.27588958    03
Epoch (UTC): 25 May 2026 10:16:16
Eccentricity: 0.0001772
inclination: 43.0000°
perigee height: 482 km
apogee height: 484 km
right ascension of ascending node: 197.2443°
argument of perigee: 276.3124°
revolutions per day: 15.27588958
mean anomaly at epoch: 83.7526°

The dashed part of the orbit path shows where the satellite is in the earth's shadow,  

DLR